Tracking 31027 objects as of 19-Jul-2025
HD Live streaming from Space Station
objects crossing your sky now

DELTA 1 DEB

Track DELTA 1 DEB now!
10-day predictions


NORAD ID: 12211
Int'l Code: 1978-026BC
Perigee: 787.0 km
Apogee: 955.6 km
Inclination: 99.2 °
Period: 102.2 minutes
Semi major axis: 7242 km
RCS: 0.0111 m2 (small)
Launch date: March 5, 1978
Source: United States (US)
Launch site: AIR FORCE WESTERN TEST RANGE (AFWTR)

Note: This is SATELLITE DEBRIS
Your satellite tracking list
MOLNIYA 1-86
Track 1 satellite(s)




NASA's NSSDC Master Catalog

Two Line Element Set (TLE):
1 12211U 78026BC  25199.17620874  .00000313  00000-0  19699-3 0  9995
2 12211  99.1838 100.6021 0116382 291.4819  67.3972 14.08596495272604
Source of the keplerian elements: AFSPC